Haleyville, AL

6:35 AM CDT on April 23, 2017 (GMT -0500)
Haleyville

Weather History for K1M4 - April, 2013

Change the Weather History Date:

Friday, April 26, 2013

  Actual Average (KJFX) Record (KJFX)
Temperature  
Mean Temperature 55 °F -  
Max Temperature 74 °F 75 °F 87 °F (2014)
Min Temperature 36 °F 47 °F 33 °F (1983)
Degree Days  
Heating Degree Days 10    
Growing Degree Days 5 (Base 50)    
Moisture  
Dew Point 39 °F    
Average Humidity 61    
Maximum Humidity 100    
Minimum Humidity 18    
Precipitation  
Precipitation 0.00 in - - ()
Sea Level Pressure  
Sea Level Pressure 30.35 in    
Wind  
Wind Speed 3 mph (East)    
Max Wind Speed 9 mph    
Max Gust Speed -    
Visibility 9 miles    
Events      
Averages and records for this station are not official NWS values.
T = Trace of Precipitation, MM = Missing Value Source: NWS Daily Summary

Daily Weather History Graph

Daily Weather History Graph

Search for Another Location

Airport or City:

Trip Planner

Search our weather history database for the weather conditions in past years. The results will help you decide how hot, cold, wet, or windy it might be!

Date:

Astronomy

Apr. 26, 2013 Rise Set
Actual Time 6:05 AM CDT 7:30 PM CDT
Civil Twilight 5:39 AM CDT 7:57 PM CDT
Nautical Twilight 5:07 AM CDT 8:29 PM CDT
Astronomical Twilight 4:34 AM CDT 9:02 PM CDT
Moon 8:49 PM CDT (4/26) 6:35 AM CDT (4/26)
Length of Visible Light 14h 18m
Length of Day
13h 25m
Full, 99% of the Moon is Illuminated
Apr 26
Full
May 2
Last Quarter
May 9
New
May 17
First Quarter
May 24
Full

Hourly Weather History & Observations

Time (CDT) Temp. Windchill Dew Point Humidity Pressure Visibility Wind Dir Wind Speed Gust Speed Precip Events Conditions
12:56 AM 38.8 °F - 38.8 °F 100% 30.39 in 8.0 mi Calm Calm - N/A   Clear
1:56 AM 37.9 °F 35.5 °F 37.9 °F 100% 30.37 in 8.0 mi ENE 3.5 mph - N/A   Clear
2:56 AM 36.9 °F - 36.9 °F 100% 30.35 in 8.0 mi Calm Calm - N/A   Clear
3:56 AM 37.9 °F - 37.9 °F 100% 30.37 in 9.0 mi Calm Calm - N/A   Clear
4:56 AM 36.9 °F - 36.9 °F 100% 30.36 in 9.0 mi Calm Calm - N/A   Clear
5:56 AM 36.0 °F 33.3 °F 36.0 °F 100% 30.36 in 8.0 mi ENE 3.5 mph - N/A   Clear
6:56 AM 36.9 °F - 36.9 °F 100% 30.39 in 6.0 mi Calm Calm - N/A   Clear
7:56 AM 45.0 °F - 39.9 °F 82% 30.41 in 10.0 mi Calm Calm - N/A   Clear
8:56 AM 56.8 °F - 36.9 °F 47% 30.41 in 10.0 mi East 5.8 mph - N/A   Clear
9:56 AM 61.0 °F - 36.0 °F 39% 30.42 in 10.0 mi East 6.9 mph - N/A   Clear
10:56 AM 64.9 °F - 32.9 °F 30% 30.43 in 10.0 mi Variable 6.9 mph - N/A   Clear
11:56 AM 68.9 °F - 34.0 °F 28% 30.40 in 10.0 mi East 8.1 mph - N/A   Clear
12:56 PM 70.9 °F - 34.0 °F 26% 30.36 in 10.0 mi ESE 8.1 mph - N/A   Clear
1:56 PM 72.9 °F - 32.9 °F 23% 30.34 in 10.0 mi ESE 9.2 mph - N/A   Partly Cloudy
2:56 PM 74.8 °F - 28.0 °F 18% 30.32 in 10.0 mi SSE 8.1 mph - N/A   Clear
3:56 PM 72.0 °F - 32.0 °F 23% 30.32 in 10.0 mi SSE 3.5 mph - N/A   Mostly Cloudy
4:56 PM 65.8 °F - 45.0 °F 47% 30.33 in 10.0 mi NE 9.2 mph - N/A   Clear
5:56 PM 64.9 °F - 45.0 °F 48% 30.31 in 10.0 mi Variable 4.6 mph - 0.00 in   Clear
6:56 PM 63.9 °F - 43.9 °F 48% 30.28 in 10.0 mi East 4.6 mph - N/A   Mostly Cloudy
7:56 PM 61.0 °F - 45.9 °F 58% 30.27 in 10.0 mi ENE 3.5 mph - N/A   Mostly Cloudy
8:56 PM 61.0 °F - 45.0 °F 56% 30.33 in 10.0 mi North 9.2 mph - N/A   Overcast
9:56 PM 59.0 °F - 45.0 °F 60% 30.31 in 10.0 mi NE 5.8 mph - N/A   Overcast
10:56 PM 56.8 °F - 45.0 °F 64% 30.32 in 10.0 mi NE 5.8 mph - N/A   Overcast
11:56 PM 56.8 °F - 45.9 °F 67% 30.31 in 10.0 mi NE 5.8 mph - 0.00 in   Overcast